| time (UTC) | temp F | wind direction | speed MPH | gust MPH | rain 1hr in | rain 24hr in | rain mn in | humidity % | barometer mb |
| 20260906025004 | 65 | 7 | 1.0 | 2.0 | 0.00 | 0.00 | 0.00 | 67 | 1015.3 |
| 20260906024004 | 66 | 6 | 1.0 | 2.0 | 0.00 | 0.00 | 0.00 | 66 | 1015.4 |
| 20260906023504 | 66 | 5 | 0.0 | 2.0 | 0.00 | 0.00 | 0.00 | 66 | 1015.4 |
| 20260906023004 | 67 | 9 | 0.0 | 1.0 | 0.00 | 0.00 | 0.00 | 65 | 1015.3 |
| 20260906022503 | 67 | 9 | 0.0 | 2.0 | 0.00 | 0.00 | 0.00 | 65 | 1015.3 |
| 20260906022004 | 68 | 6 | 0.0 | 1.0 | 0.00 | 0.00 | 0.00 | 63 | 1015.3 |
| 20260906021004 | 69 | 5 | 0.0 | 2.0 | 0.00 | 0.00 | 0.00 | 60 | 1015.4 |
| 20260906020505 | 70 | 9 | 0.0 | 2.0 | 0.00 | 0.00 | 0.00 | 59 | 1015.3 |
| 20260906020004 | 71 | 6 | 0.0 | 2.0 | 0.00 | 0.00 | 0.00 | 58 | 1015.4 |
| 20260906015504 | 71 | 5 | 0.0 | 2.0 | 0.00 | 0.00 | 0.00 | 56 | 1015.4 |
| 20260906015004 | 71 | 9 | 0.0 | 2.0 | 0.00 | 0.00 | 0.00 | 56 | 1015.4 |
| 20260906014503 | 71 | 6 | 1.0 | 1.0 | 0.00 | 0.00 | 0.00 | 57 | 1015.4 |
| 20260906014004 | 71 | 6 | 1.0 | 2.0 | 0.00 | 0.00 | 0.00 | 57 | 1015.5 |
| 20260906013504 | 71 | 5 | 0.0 | 1.0 | 0.00 | 0.00 | 0.00 | 56 | 1015.4 |
| 20260906013004 | 70 | 0 | 1.0 | 1.0 | 0.00 | 0.00 | 0.00 | 55 | 1015.4 |
| 20260906012004 | 70 | 329 | 1.0 | 2.0 | 0.00 | 0.00 | 0.00 | 56 | 1015.4 |
| 20260906011504 | 70 | 34 | 1.0 | 2.0 | 0.00 | 0.00 | 0.00 | 58 | 1015.4 |
| 20260906011004 | 70 | 324 | 1.0 | 2.0 | 0.00 | 0.00 | 0.00 | 57 | 1015.5 |
| 20260906010505 | 70 | 76 | 2.0 | 3.0 | 0.00 | 0.00 | 0.00 | 58 | 1015.4 |
| 20260906010005 | 70 | 2 | 1.0 | 2.0 | 0.00 | 0.00 | 0.00 | 55 | 1015.5 |
| 20260906005506 | 71 | 72 | 5.0 | 7.0 | 0.00 | 0.00 | 0.00 | 55 | 1015.5 |
| 20260906005005 | 71 | 62 | 3.0 | 7.0 | 0.00 | 0.00 | 0.00 | 56 | 1015.5 |
| 20260906004505 | 71 | 67 | 3.0 | 6.0 | 0.00 | 0.00 | 0.00 | 56 | 1015.5 |
| 20260906004005 | 72 | 75 | 3.0 | 7.0 | 0.00 | 0.00 | 0.00 | 57 | 1015.5 |
| 20260906003505 | 72 | 66 | 3.0 | 6.0 | 0.00 | 0.00 | 0.00 | 56 | 1015.5 |
| 20260906002505 | 72 | 86 | 4.0 | 6.0 | 0.00 | 0.00 | 0.00 | 54 | 1015.5 |
| 20260906002005 | 72 | 89 | 6.0 | 8.0 | 0.00 | 0.00 | 0.00 | 50 | 1015.4 |
| 20260906001505 | 72 | 73 | 1.0 | 5.0 | 0.00 | 0.00 | 0.00 | 52 | 1015.4 |
| 20260906001005 | 72 | 309 | 1.0 | 6.0 | 0.00 | 0.00 | 0.00 | 53 | 1015.3 |
| 20260906000505 | 72 | 31 | 2.0 | 5.0 | 0.00 | 0.00 | 0.00 | 52 | 1015.3 |
| 20260906000005 | 72 | 172 | 3.0 | 5.0 | 0.00 | 0.00 | 0.00 | 53 | 1015.4 |
| 20260905235005 | 72 | 189 | 5.0 | 9.0 | 0.00 | 0.00 | 0.00 | 51 | 1015.4 |
| 20260905234505 | 72 | 79 | 2.0 | 2.0 | 0.00 | 0.00 | 0.00 | 51 | 1015.4 |
| 20260905234005 | 73 | 204 | 3.0 | 7.0 | 0.00 | 0.00 | 0.00 | 49 | 1015.5 |
| 20260905233505 | 73 | 196 | 3.0 | 9.0 | 0.00 | 0.00 | 0.00 | 49 | 1015.5 |
| 20260905233005 | 73 | 191 | 6.0 | 10.0 | 0.00 | 0.00 | 0.00 | 49 | 1015.5 |
| 20260905232005 | 72 | 237 | 4.0 | 12.0 | 0.00 | 0.00 | 0.00 | 50 | 1015.5 |
| 20260905231505 | 73 | 122 | 5.0 | 9.0 | 0.00 | 0.00 | 0.00 | 49 | 1015.5 |
| 20260905231005 | 72 | 185 | 6.0 | 10.0 | 0.00 | 0.00 | 0.00 | 52 | 1015.6 |
| 20260905230505 | 72 | 232 | 3.0 | 9.0 | 0.00 | 0.00 | 0.00 | 52 | 1015.5 |
| 20260905224506 | 72 | 205 | 4.0 | 7.0 | 0.00 | 0.00 | 0.00 | 53 | 1015.8 |
| 20260905224006 | 71 | 209 | 3.0 | 6.0 | 0.00 | 0.00 | 0.00 | 53 | 1015.8 |
| 20260905223505 | 71 | 246 | 3.0 | 9.0 | 0.00 | 0.00 | 0.00 | 54 | 1015.8 |
| 20260905223005 | 71 | 239 | 3.0 | 7.0 | 0.00 | 0.00 | 0.00 | 57 | 1015.8 |
| 20260905222505 | 70 | 212 | 5.0 | 9.0 | 0.00 | 0.00 | 0.00 | 57 | 1015.9 |
| 20260905222005 | 70 | 261 | 5.0 | 8.0 | 0.00 | 0.00 | 0.00 | 55 | 1015.9 |
| 20260905221505 | 70 | 234 | 4.0 | 7.0 | 0.00 | 0.00 | 0.00 | 56 | 1016.0 |
| 20260905221005 | 70 | 265 | 3.0 | 5.0 | 0.00 | 0.00 | 0.00 | 55 | 1016.1 |
| 20260905220005 | 70 | 152 | 5.0 | 8.0 | 0.00 | 0.00 | 0.00 | 56 | 1016.1 |
| 20260905215505 | 70 | 210 | 3.0 | 5.0 | 0.00 | 0.00 | 0.00 | 55 | 1016.1 |
| 20260905215005 | 70 | 235 | 4.0 | 9.0 | 0.00 | 0.00 | 0.00 | 55 | 1016.3 |
| 20260905214005 | 70 | 139 | 7.0 | 12.0 | 0.00 | 0.00 | 0.00 | 56 | 1016.3 |
| 20260905213505 | 70 | 201 | 4.0 | 8.0 | 0.00 | 0.00 | 0.00 | 58 | 1016.3 |
| 20260905213005 | 70 | 152 | 3.0 | 6.0 | 0.00 | 0.00 | 0.00 | 59 | 1016.3 |
| 20260905212505 | 70 | 193 | 4.0 | 7.0 | 0.00 | 0.01 | 0.00 | 59 | 1016.4 |
| 20260905211506 | 69 | 180 | 3.0 | 8.0 | 0.00 | 0.01 | 0.00 | 61 | 1016.4 |
| 20260905211005 | 68 | 202 | 3.0 | 7.0 | 0.00 | 0.01 | 0.00 | 63 | 1016.5 |
| 20260905210505 | 69 | 168 | 5.0 | 8.0 | 0.00 | 0.01 | 0.00 | 62 | 1016.6 |
| 20260905210005 | 68 | 191 | 3.0 | 6.0 | 0.00 | 0.01 | 0.00 | 65 | 1016.6 |
| 20260905205505 | 67 | 308 | 2.0 | 3.0 | 0.00 | 0.02 | 0.00 | 68 | 1016.7 |
| 20260905204505 | 67 | 124 | 3.0 | 6.0 | 0.00 | 0.02 | 0.00 | 65 | 1016.8 |
| 20260905204005 | 66 | 143 | 3.0 | 6.0 | 0.00 | 0.02 | 0.00 | 68 | 1016.8 |
| 20260905203005 | 65 | 247 | 2.0 | 5.0 | 0.00 | 0.02 | 0.00 | 68 | 1016.9 |
| 20260905202505 | 64 | 215 | 3.0 | 5.0 | 0.00 | 0.02 | 0.00 | 70 | 1017.0 |
| 20260905202004 | 64 | 245 | 3.0 | 7.0 | 0.00 | 0.02 | 0.00 | 69 | 1016.9 |
| 20260905201505 | 64 | 228 | 3.0 | 7.0 | 0.00 | 0.02 | 0.00 | 71 | 1017.0 |
| 20260905200505 | 64 | 240 | 3.0 | 6.0 | 0.00 | 0.02 | 0.00 | 72 | 1017.0 |
| 20260905200005 | 63 | 223 | 3.0 | 6.0 | 0.00 | 0.02 | 0.00 | 73 | 1017.0 |
| 20260905195505 | 63 | 273 | 3.0 | 7.0 | 0.00 | 0.02 | 0.00 | 72 | 1017.0 |
| 20260905195005 | 63 | 295 | 3.0 | 8.0 | 0.00 | 0.02 | 0.00 | 73 | 1017.0 |
| 20260905194005 | 63 | 249 | 5.0 | 8.0 | 0.00 | 0.02 | 0.00 | 74 | 1017.0 |
| 20260905193505 | 64 | 232 | 2.0 | 7.0 | 0.00 | 0.02 | 0.00 | 76 | 1017.1 |
| 20260905193005 | 64 | 280 | 4.0 | 7.0 | 0.00 | 0.02 | 0.00 | 76 | 1017.2 |
| 20260905192505 | 64 | 239 | 3.0 | 5.0 | 0.00 | 0.02 | 0.00 | 76 | 1017.2 |
| 20260905192005 | 64 | 247 | 3.0 | 6.0 | 0.00 | 0.02 | 0.00 | 75 | 1017.1 |
| 20260905191005 | 64 | 202 | 3.0 | 5.0 | 0.00 | 0.02 | 0.00 | 76 | 1017.1 |
| 20260905190505 | 64 | 219 | 3.0 | 6.0 | 0.00 | 0.02 | 0.00 | 75 | 1017.1 |
| 20260905190005 | 64 | 219 | 1.0 | 3.0 | 0.00 | 0.02 | 0.00 | 76 | 1017.2 |
| 20260905185505 | 64 | 212 | 2.0 | 3.0 | 0.00 | 0.02 | 0.00 | 75 | 1017.2 |
| 20260905185005 | 63 | 221 | 1.0 | 3.0 | 0.00 | 0.02 | 0.00 | 75 | 1017.2 |
| 20260905184505 | 63 | 227 | 1.0 | 3.0 | 0.00 | 0.02 | 0.00 | 74 | 1017.2 |
| 20260905183005 | 64 | 86 | 0.0 | 3.0 | 0.00 | 0.02 | 0.00 | 74 | 1017.4 |
| 20260905182005 | 64 | 212 | 1.0 | 2.0 | 0.00 | 0.02 | 0.00 | 76 | 1017.4 |
| 20260905181005 | 63 | 339 | 1.0 | 2.0 | 0.00 | 0.02 | 0.00 | 78 | 1017.5 |
| 20260905180505 | 63 | 300 | 2.0 | 3.0 | 0.00 | 0.02 | 0.00 | 78 | 1017.5 |
| 20260905175505 | 63 | 74 | 2.0 | 5.0 | 0.00 | 0.02 | 0.00 | 80 | 1017.6 |
| 20260905175005 | 63 | 28 | 0.0 | 2.0 | 0.00 | 0.02 | 0.00 | 79 | 1017.5 |
| 20260905174505 | 62 | 104 | 0.0 | 5.0 | 0.00 | 0.02 | 0.00 | 79 | 1017.5 |
| 20260905174005 | 63 | 92 | 3.0 | 6.0 | 0.00 | 0.02 | 0.00 | 81 | 1017.5 |
| 20260905173505 | 62 | 44 | 1.0 | 2.0 | 0.00 | 0.02 | 0.00 | 79 | 1017.5 |
| 20260905173005 | 61 | 50 | 1.0 | 2.0 | 0.00 | 0.02 | 0.00 | 84 | 1017.6 |
| 20260905172505 | 60 | 72 | 0.0 | 3.0 | 0.00 | 0.02 | 0.00 | 86 | 1017.5 |
| 20260905172005 | 60 | 85 | 1.0 | 5.0 | 0.00 | 0.02 | 0.00 | 86 | 1017.6 |
| 20260905171505 | 60 | 0 | 2.0 | 5.0 | 0.00 | 0.02 | 0.00 | 86 | 1017.6 |
| 20260905171005 | 60 | 29 | 1.0 | 3.0 | 0.00 | 0.02 | 0.00 | 87 | 1017.5 |
| 20260905170505 | 60 | 34 | 1.0 | 2.0 | 0.00 | 0.02 | 0.00 | 88 | 1017.5 |
| 20260905170005 | 59 | 33 | 1.0 | 2.0 | 0.00 | 0.02 | 0.00 | 88 | 1017.5 |
| 20260905165505 | 59 | 59 | 1.0 | 2.0 | 0.00 | 0.02 | 0.00 | 88 | 1017.5 |
| 20260905165005 | 59 | 93 | 2.0 | 3.0 | 0.00 | 0.02 | 0.00 | 89 | 1017.5 |
| 20260905164505 | 58 | 75 | 1.0 | 3.0 | 0.00 | 0.02 | 0.00 | 89 | 1017.5 |
| 20260905163505 | 58 | 39 | 1.0 | 3.0 | 0.00 | 0.03 | 0.00 | 90 | 1017.5 |
| 20260905163005 | 58 | 0 | 2.0 | 3.0 | 0.00 | 0.03 | 0.00 | 90 | 1017.4 |
| 20260905162004 | 58 | 76 | 2.0 | 3.0 | 0.00 | 0.03 | 0.00 | 90 | 1017.5 |
| 20260905161505 | 57 | 73 | 1.0 | 2.0 | 0.00 | 0.03 | 0.00 | 90 | 1017.5 |
| 20260905161005 | 57 | 74 | 1.0 | 3.0 | 0.00 | 0.03 | 0.00 | 90 | 1017.5 |
| 20260905160005 | 57 | 99 | 1.0 | 2.0 | 0.00 | 0.03 | 0.00 | 90 | 1017.5 |
| 20260905155505 | 57 | 103 | 1.0 | 1.0 | 0.00 | 0.03 | 0.00 | 91 | 1017.5 |
| 20260905154005 | 56 | 104 | 1.0 | 2.0 | 0.00 | 0.03 | 0.00 | 91 | 1017.4 |
| 20260905153504 | 56 | 71 | 1.0 | 2.0 | 0.00 | 0.03 | 0.00 | 91 | 1017.5 |
| 20260905153005 | 56 | 66 | 0.0 | 2.0 | 0.00 | 0.03 | 0.00 | 91 | 1017.5 |
| 20260905152505 | 56 | 65 | 0.0 | 2.0 | 0.00 | 0.03 | 0.00 | 91 | 1017.5 |
| 20260905152005 | 56 | 61 | 1.0 | 2.0 | 0.00 | 0.03 | 0.00 | 91 | 1017.5 |
| 20260905151505 | 56 | 79 | 1.0 | 2.0 | 0.00 | 0.03 | 0.00 | 91 | 1017.5 |
| 20260905151005 | 56 | 82 | 2.0 | 2.0 | 0.00 | 0.03 | 0.00 | 91 | 1017.4 |
| 20260905150504 | 56 | 66 | 2.0 | 3.0 | 0.00 | 0.03 | 0.00 | 91 | 1017.4 |
| 20260905145506 | 56 | 126 | 0.0 | 1.0 | 0.00 | 0.03 | 0.00 | 91 | 1017.4 |
| 20260905145005 | 56 | 126 | 0.0 | 2.0 | 0.00 | 0.03 | 0.00 | 91 | 1017.4 |
| 20260905144505 | 56 | 127 | 1.0 | 2.0 | 0.00 | 0.03 | 0.00 | 91 | 1017.3 |
| 20260905144005 | 55 | 126 | 0.0 | 2.0 | 0.00 | 0.03 | 0.00 | 91 | 1017.3 |
| 20260905143505 | 55 | 126 | 0.0 | 2.0 | 0.00 | 0.03 | 0.00 | 91 | 1017.3 |
| 20260905143005 | 55 | 126 | 0.0 | 2.0 | 0.00 | 0.03 | 0.00 | 91 | 1017.3 |
| 20260905142504 | 54 | 126 | 0.0 | 2.0 | 0.00 | 0.03 | 0.00 | 91 | 1017.3 |
| 20260905141505 | 54 | 126 | 0.0 | 2.0 | 0.00 | 0.03 | 0.00 | 91 | 1017.3 |
| 20260905141005 | 54 | 126 | 0.0 | 2.0 | 0.00 | 0.03 | 0.00 | 91 | 1017.3 |
| 20260905140005 | 54 | 126 | 0.0 | 1.0 | 0.00 | 0.03 | 0.00 | 91 | 1017.2 |
| 20260905135504 | 54 | 126 | 0.0 | 2.0 | 0.00 | 0.03 | 0.00 | 91 | 1017.2 |
| 20260905135005 | 54 | 126 | 1.0 | 2.0 | 0.00 | 0.03 | 0.00 | 91 | 1017.2 |
| 20260905134505 | 54 | 126 | 1.0 | 2.0 | 0.00 | 0.03 | 0.00 | 91 | 1017.2 |
| 20260905134004 | 54 | 86 | 0.0 | 2.0 | 0.00 | 0.03 | 0.00 | 91 | 1017.2 |
| 20260905133504 | 54 | 86 | 0.0 | 2.0 | 0.00 | 0.03 | 0.00 | 91 | 1017.2 |
| 20260905133005 | 54 | 86 | 0.0 | 2.0 | 0.00 | 0.03 | 0.00 | 91 | 1017.1 |
| 20260905132504 | 54 | 86 | 0.0 | 2.0 | 0.00 | 0.04 | 0.00 | 91 | 1017.2 |
| 20260905132004 | 54 | 86 | 0.0 | 0.0 | 0.00 | 0.05 | 0.00 | 91 | 1017.1 |
| 20260905131505 | 54 | 86 | 0.0 | 1.0 | 0.00 | 0.05 | 0.00 | 91 | 1017.2 |
| 20260905130504 | 54 | 86 | 0.0 | 0.0 | 0.00 | 0.06 | 0.00 | 91 | 1017.1 |
| 20260905130004 | 54 | 86 | 0.0 | 0.0 | 0.00 | 0.07 | 0.00 | 91 | 1017.1 |
| 20260905125505 | 54 | 86 | 0.0 | 0.0 | 0.00 | 0.07 | 0.00 | 91 | 1017.1 |
| 20260905125005 | 54 | 86 | 0.0 | 0.0 | 0.00 | 0.07 | 0.00 | 91 | 1017.1 |
| 20260905124505 | 54 | 86 | 0.0 | 0.0 | 0.00 | 0.08 | 0.00 | 91 | 1017.0 |
| 20260905124005 | 54 | 86 | 0.0 | 0.0 | 0.00 | 0.09 | 0.00 | 91 | 1017.0 |
| 20260905123505 | 54 | 86 | 0.0 | 0.0 | 0.00 | 0.09 | 0.00 | 91 | 1017.0 |
| 20260905123005 | 54 | 86 | 0.0 | 0.0 | 0.00 | 0.10 | 0.00 | 91 | 1017.0 |
| 20260905122504 | 54 | 86 | 0.0 | 0.0 | 0.00 | 0.11 | 0.00 | 91 | 1017.0 |
| 20260905122004 | 54 | 86 | 0.0 | 0.0 | 0.00 | 0.12 | 0.00 | 91 | 1017.0 |
| 20260905121505 | 54 | 86 | 0.0 | 0.0 | 0.00 | 0.13 | 0.00 | 91 | 1016.9 |
| 20260905121005 | 54 | 86 | 0.0 | 0.0 | 0.00 | 0.14 | 0.00 | 91 | 1016.9 |
| 20260905120005 | 54 | 86 | 0.0 | 1.0 | 0.00 | 0.15 | 0.00 | 91 | 1016.8 |
| 20260905115505 | 54 | 86 | 1.0 | 2.0 | 0.00 | 0.16 | 0.00 | 91 | 1016.9 |
| 20260905115005 | 54 | 86 | 1.0 | 2.0 | 0.00 | 0.16 | 0.00 | 91 | 1016.8 |
| 20260905114005 | 54 | 86 | 0.0 | 0.0 | 0.00 | 0.16 | 0.00 | 91 | 1016.8 |
| 20260905113505 | 54 | 86 | 1.0 | 2.0 | 0.00 | 0.16 | 0.00 | 91 | 1016.7 |
| 20260905113005 | 54 | 86 | 0.0 | 0.0 | 0.00 | 0.16 | 0.00 | 91 | 1016.7 |
| 20260905112505 | 53 | 86 | 0.0 | 1.0 | 0.00 | 0.16 | 0.00 | 91 | 1016.7 |
| 20260905112004 | 53 | 86 | 0.0 | 0.0 | 0.00 | 0.16 | 0.00 | 91 | 1016.8 |
| 20260905111505 | 53 | 86 | 0.0 | 0.0 | 0.00 | 0.16 | 0.00 | 91 | 1016.8 |
| 20260905111004 | 53 | 86 | 0.0 | 0.0 | 0.00 | 0.16 | 0.00 | 91 | 1016.8 |
| 20260905110505 | 53 | 86 | 0.0 | 2.0 | 0.00 | 0.16 | 0.00 | 91 | 1016.9 |
| 20260905110005 | 53 | 86 | 1.0 | 2.0 | 0.00 | 0.17 | 0.00 | 91 | 1016.8 |
| 20260905103505 | 53 | 86 | 0.0 | 0.0 | 0.00 | 0.17 | 0.00 | 91 | 1016.9 |
| 20260905103005 | 53 | 86 | 0.0 | 1.0 | 0.00 | 0.17 | 0.00 | 91 | 1017.0 |
| 20260905102505 | 53 | 86 | 1.0 | 1.0 | 0.00 | 0.17 | 0.00 | 91 | 1016.9 |
| 20260905101505 | 53 | 86 | 0.0 | 2.0 | 0.00 | 0.17 | 0.00 | 91 | 1016.9 |
| 20260905101005 | 53 | 86 | 0.0 | 0.0 | 0.00 | 0.17 | 0.00 | 91 | 1016.9 |
| 20260905095505 | 53 | 86 | 0.0 | 0.0 | 0.00 | 0.17 | 0.00 | 91 | 1017.0 |
| 20260905095004 | 53 | 86 | 0.0 | 0.0 | 0.00 | 0.17 | 0.00 | 91 | 1017.0 |
| 20260905094505 | 53 | 86 | 0.0 | 0.0 | 0.00 | 0.17 | 0.00 | 91 | 1016.9 |
| 20260905093505 | 53 | 159 | 1.0 | 2.0 | 0.00 | 0.17 | 0.00 | 91 | 1016.9 |
| 20260905093005 | 53 | 164 | 0.0 | 1.0 | 0.00 | 0.17 | 0.00 | 91 | 1016.8 |
| 20260905092505 | 53 | 164 | 0.0 | 0.0 | 0.00 | 0.17 | 0.00 | 91 | 1016.8 |
| 20260905091505 | 53 | 164 | 0.0 | 2.0 | 0.00 | 0.17 | 0.00 | 91 | 1016.7 |
| 20260905091004 | 53 | 164 | 1.0 | 2.0 | 0.00 | 0.17 | 0.00 | 91 | 1016.7 |
| 20260905090505 | 53 | 175 | 0.0 | 2.0 | 0.00 | 0.17 | 0.00 | 91 | 1016.7 |
| 20260905090005 | 53 | 175 | 1.0 | 2.0 | 0.00 | 0.17 | 0.00 | 91 | 1016.6 |
| 20260905085505 | 53 | 227 | 1.0 | 1.0 | 0.00 | 0.17 | 0.00 | 91 | 1016.7 |
| 20260905084505 | 53 | 304 | 0.0 | 1.0 | 0.00 | 0.17 | 0.00 | 91 | 1016.5 |
| 20260905084005 | 52 | 304 | 0.0 | 2.0 | 0.00 | 0.17 | 0.00 | 91 | 1016.5 |
| 20260905083505 | 52 | 304 | 0.0 | 2.0 | 0.00 | 0.17 | 0.00 | 90 | 1016.5 |
| 20260905083005 | 52 | 304 | 1.0 | 2.0 | 0.00 | 0.17 | 0.00 | 90 | 1016.6 |
| 20260905082505 | 52 | 302 | 1.0 | 1.0 | 0.00 | 0.17 | 0.00 | 90 | 1016.5 |
| 20260905082005 | 52 | 302 | 1.0 | 2.0 | 0.00 | 0.17 | 0.00 | 91 | 1016.4 |
| 20260905081505 | 52 | 327 | 0.0 | 0.0 | 0.00 | 0.17 | 0.00 | 90 | 1016.4 |
| 20260905081005 | 52 | 327 | 0.0 | 2.0 | 0.00 | 0.17 | 0.00 | 90 | 1016.5 |
| 20260905080504 | 53 | 327 | 1.0 | 2.0 | 0.00 | 0.17 | 0.00 | 90 | 1016.4 |
| 20260905080005 | 53 | 269 | 0.0 | 2.0 | 0.00 | 0.17 | 0.00 | 90 | 1016.4 |
| 20260905075505 | 53 | 269 | 1.0 | 2.0 | 0.00 | 0.17 | 0.00 | 90 | 1016.3 |
| 20260905075005 | 53 | 269 | 1.0 | 2.0 | 0.00 | 0.17 | 0.00 | 90 | 1016.3 |
| 20260905074505 | 53 | 236 | 2.0 | 2.0 | 0.00 | 0.17 | 0.00 | 90 | 1016.3 |
| 20260905073005 | 52 | 197 | 1.0 | 2.0 | 0.00 | 0.17 | 0.00 | 90 | 1016.2 |
| 20260905072504 | 52 | 196 | 0.0 | 2.0 | 0.00 | 0.17 | 0.00 | 90 | 1016.2 |
| 20260905072005 | 52 | 201 | 1.0 | 2.0 | 0.00 | 0.17 | 0.00 | 90 | 1016.2 |
| 20260905071004 | 52 | 246 | 0.0 | 0.0 | 0.00 | 0.17 | 0.00 | 90 | 1016.2 |
| 20260905070505 | 52 | 246 | 0.0 | 0.0 | 0.00 | 0.17 | 0.00 | 90 | 1016.2 |
| 20260905070005 | 52 | 246 | 0.0 | 0.0 | 0.00 | 0.17 | 0.00 | 90 | 1016.2 |
| 20260905065504 | 53 | 246 | 0.0 | 0.0 | 0.00 | 0.17 | 0.17 | 90 | 1016.2 |
| 20260905065005 | 53 | 246 | 0.0 | 0.0 | 0.00 | 0.17 | 0.17 | 90 | 1016.1 |
| 20260905064505 | 53 | 246 | 0.0 | 2.0 | 0.00 | 0.17 | 0.17 | 90 | 1016.0 |
| 20260905064004 | 53 | 246 | 0.0 | 2.0 | 0.00 | 0.17 | 0.17 | 90 | 1016.0 |
| 20260905063505 | 53 | 246 | 0.0 | 0.0 | 0.00 | 0.17 | 0.17 | 90 | 1016.0 |
| 20260905063005 | 53 | 246 | 0.0 | 0.0 | 0.00 | 0.17 | 0.17 | 90 | 1016.0 |
| 20260905062505 | 53 | 246 | 0.0 | 0.0 | 0.00 | 0.17 | 0.17 | 90 | 1015.9 |
| 20260905062004 | 54 | 246 | 1.0 | 1.0 | 0.00 | 0.17 | 0.17 | 90 | 1015.9 |
| 20260905061504 | 54 | 246 | 0.0 | 0.0 | 0.00 | 0.17 | 0.17 | 90 | 1015.8 |
| 20260905061005 | 54 | 246 | 1.0 | 2.0 | 0.00 | 0.17 | 0.17 | 89 | 1015.8 |
| 20260905060504 | 54 | 225 | 1.0 | 2.0 | 0.00 | 0.17 | 0.17 | 89 | 1015.7 |
| 20260905060005 | 54 | 225 | 1.0 | 2.0 | 0.00 | 0.17 | 0.17 | 89 | 1015.8 |
| 20260905055504 | 54 | 5 | 1.0 | 2.0 | 0.00 | 0.17 | 0.17 | 89 | 1015.9 |
| 20260905055005 | 55 | 7 | 1.0 | 2.0 | 0.00 | 0.17 | 0.17 | 89 | 1015.8 |
| 20260905054505 | 55 | 9 | 0.0 | 0.0 | 0.00 | 0.17 | 0.17 | 89 | 1015.8 |
| 20260905054005 | 55 | 9 | 0.0 | 2.0 | 0.00 | 0.17 | 0.17 | 89 | 1015.9 |
| 20260905053505 | 55 | 5 | 0.0 | 2.0 | 0.00 | 0.17 | 0.17 | 89 | 1015.9 |
| 20260905053005 | 55 | 5 | 0.0 | 0.0 | 0.00 | 0.17 | 0.17 | 89 | 1015.9 |
| 20260905052505 | 55 | 6 | 0.0 | 2.0 | 0.00 | 0.17 | 0.17 | 89 | 1015.8 |
| 20260905052004 | 56 | 5 | 0.0 | 2.0 | 0.00 | 0.17 | 0.17 | 89 | 1015.8 |
| 20260905051005 | 56 | 288 | 0.0 | 2.0 | 0.00 | 0.17 | 0.17 | 89 | 1015.8 |
| 20260905050504 | 56 | 288 | 1.0 | 1.0 | 0.00 | 0.17 | 0.17 | 89 | 1015.8 |
| 20260905050005 | 56 | 288 | 0.0 | 2.0 | 0.00 | 0.17 | 0.17 | 89 | 1015.8 |
| 20260905045504 | 56 | 287 | 0.0 | 0.0 | 0.00 | 0.17 | 0.17 | 89 | 1015.8 |
| 20260905045004 | 56 | 287 | 0.0 | 0.0 | 0.00 | 0.17 | 0.17 | 89 | 1015.8 |
| 20260905044005 | 56 | 288 | 0.0 | 2.0 | 0.00 | 0.17 | 0.17 | 89 | 1015.8 |
| 20260905043505 | 56 | 288 | 1.0 | 1.0 | 0.00 | 0.17 | 0.17 | 89 | 1015.8 |
| 20260905043005 | 56 | 288 | 0.0 | 0.0 | 0.00 | 0.17 | 0.17 | 89 | 1015.8 |
| 20260905042505 | 56 | 288 | 0.0 | 0.0 | 0.00 | 0.17 | 0.17 | 89 | 1015.8 |
| 20260905042005 | 56 | 288 | 0.0 | 1.0 | 0.00 | 0.17 | 0.17 | 89 | 1015.7 |
| 20260905041505 | 56 | 288 | 0.0 | 2.0 | 0.00 | 0.17 | 0.17 | 89 | 1015.7 |
| 20260905041005 | 56 | 288 | 1.0 | 2.0 | 0.00 | 0.17 | 0.17 | 89 | 1015.7 |
| 20260905040504 | 56 | 352 | 0.0 | 1.0 | 0.00 | 0.17 | 0.17 | 88 | 1015.6 |
| 20260905035505 | 56 | 252 | 0.0 | 1.0 | 0.00 | 0.17 | 0.17 | 88 | 1015.6 |
| 20260905035004 | 56 | 251 | 0.0 | 2.0 | 0.00 | 0.17 | 0.17 | 88 | 1015.5 |
| 20260905034504 | 56 | 251 | 1.0 | 1.0 | 0.00 | 0.17 | 0.17 | 88 | 1015.4 |
| 20260905034005 | 56 | 252 | 0.0 | 1.0 | 0.00 | 0.17 | 0.17 | 88 | 1015.4 |
| 20260905033505 | 56 | 252 | 0.0 | 2.0 | 0.00 | 0.17 | 0.17 | 88 | 1015.4 |
| 20260905033005 | 57 | 251 | 2.0 | 2.0 | 0.00 | 0.17 | 0.17 | 88 | 1015.2 |
| 20260905032505 | 57 | 243 | 2.0 | 2.0 | 0.00 | 0.17 | 0.17 | 87 | 1015.1 |
| 20260905032005 | 57 | 225 | 1.0 | 2.0 | 0.00 | 0.17 | 0.17 | 87 | 1015.1 |
| 20260905031505 | 57 | 209 | 1.0 | 2.0 | 0.00 | 0.17 | 0.17 | 87 | 1015.0 |
| 20260905031004 | 58 | 209 | 1.0 | 2.0 | 0.00 | 0.17 | 0.17 | 87 | 1014.9 |
| 20260905030505 | 58 | 209 | 1.0 | 2.0 | 0.00 | 0.17 | 0.17 | 86 | 1014.8 |
| 20260905030005 | 58 | 180 | 1.0 | 2.0 | 0.00 | 0.17 | 0.17 | 86 | 1014.7 |
| 20260905025504 | 58 | 259 | 1.0 | 1.0 | 0.00 | 0.17 | 0.17 | 86 | 1014.7 |